Regional Weather Roundup
Issued by NWS Goodland, KS

Home | Current Version | Previous Version | Graphics & Text | Print | Product List | Glossary On
Versions: 1 2 3 4 5 6 7 8 9 10 11 12 13 14 15 16 17 18 19 20 21 22 23 24 25 26 27 28 29 30 31 32 33 34 35 36 37 38 39 40 41 42 43 44 45 46 47 48 49 50
544
ASUS43 KGLD 271159
RWRGLD

GOODLAND FORECAST AREA HOURLY WEATHER ROUNDUP
NATIONAL WEATHER SERVICE GOODLAND KS
600 AM MDT TUE SEP 27 2016

...OFFICIAL OBSERVATIONS...

CITY           SKY/WX    TMP DP  RH WIND       PRES   REMARKS
GOODLAND KS    CLEAR     47  39  74 CALM      30.17S
HILL CITY KS   CLEAR     48  43  82 W9        30.12S
IMPERIAL NEB   CLEAR     47  40  76 W7        30.17S
MCCOOK NEB     CLEAR     44  40  85 W8        30.13S
AKRON CO       CLOUDY    44  35  70 W8        30.21S
BURLINGTON CO  CLEAR     45  37  73 W7        30.20S
LIMON CO       CLOUDY    36  27  69 NW3       30.26S
$$

...UNOFFICIAL OBSERVATIONS...

CITY           SKY/WX    TMP DP  RH WIND       PRES   REMARKS
COLBY KS       CLEAR     45  43  93 W8        30.17S
LENORA KS        N/A     52  32  46 MISG        N/A
NORTON KS      CLEAR     45  37  76 W6        30.10S
SHARON SPRINGS   N/A     46  39  76 W9          N/A
KIT CARSON CO    N/A     42  36  79 CALM        N/A
$$




USA.gov is the U.S. government's official web portal to all federal, state and local government web resources and services.